Year,Month,Day,Hour,Minute,Value (Times are PST for temperature in C)
2006,08,05,00,00,15.00
2006,08,05,00,01,15.00
2006,08,05,00,02,15.00
2006,08,05,00,03,15.00
2006,08,05,00,04,15.00
2006,08,05,00,05,15.00
2006,08,05,00,06,15.00
2006,08,05,00,07,15.00
2006,08,05,00,08,15.00
2006,08,05,00,09,15.00
2006,08,05,00,10,14.90
2006,08,05,00,11,14.90
2006,08,05,00,12,14.90
2006,08,05,00,13,14.90
2006,08,05,00,14,14.90
2006,08,05,00,15,14.90
2006,08,05,00,16,14.90
2006,08,05,00,17,14.90
2006,08,05,00,18,14.80
2006,08,05,00,19,14.80
2006,08,05,00,20,14.80
2006,08,05,00,21,14.80
2006,08,05,00,22,14.80
2006,08,05,00,23,14.80
2006,08,05,00,24,14.80
2006,08,05,00,25,14.70
2006,08,05,00,26,14.70
2006,08,05,00,27,14.70
2006,08,05,00,28,14.70
2006,08,05,00,29,14.70
2006,08,05,00,30,14.70
2006,08,05,00,31,14.70
2006,08,05,00,32,14.70
2006,08,05,00,33,14.70
2006,08,05,00,34,14.70
2006,08,05,00,35,14.70
2006,08,05,00,36,14.70
2006,08,05,00,37,14.70
2006,08,05,00,38,14.70
2006,08,05,00,39,14.70
2006,08,05,00,40,14.70
2006,08,05,00,41,14.60
2006,08,05,00,42,14.60
2006,08,05,00,43,14.60
2006,08,05,00,44,14.60
2006,08,05,00,45,14.50
2006,08,05,00,46,14.50
2006,08,05,00,47,14.50
2006,08,05,00,48,14.50
2006,08,05,00,49,14.50
2006,08,05,00,50,14.50
2006,08,05,00,51,14.50
2006,08,05,00,52,14.50
2006,08,05,00,53,14.50
2006,08,05,00,54,14.50
2006,08,05,00,55,14.50
2006,08,05,00,56,14.60
2006,08,05,00,57,14.60
2006,08,05,00,58,14.60
2006,08,05,00,59,14.60
2006,08,05,01,00,14.60
2006,08,05,01,01,14.60
2006,08,05,01,02,14.60
2006,08,05,01,03,14.60
2006,08,05,01,04,14.60
2006,08,05,01,05,14.60
2006,08,05,01,06,14.60
2006,08,05,01,07,14.60
2006,08,05,01,08,14.60
2006,08,05,01,09,14.60
2006,08,05,01,10,14.60
2006,08,05,01,11,14.50
2006,08,05,01,12,14.50
2006,08,05,01,13,14.50
2006,08,05,01,14,14.50
2006,08,05,01,15,14.40
2006,08,05,01,16,14.40
2006,08,05,01,17,14.40
2006,08,05,01,18,14.30
2006,08,05,01,19,14.30
2006,08,05,01,20,14.20
2006,08,05,01,21,14.20
2006,08,05,01,22,14.20
2006,08,05,01,23,14.20
2006,08,05,01,24,14.10
2006,08,05,01,25,14.10
2006,08,05,01,26,14.00
2006,08,05,01,27,14.00
2006,08,05,01,28,14.00
2006,08,05,01,29,13.90
2006,08,05,01,30,13.90
2006,08,05,01,31,13.80
2006,08,05,01,32,13.80
2006,08,05,01,33,13.80
2006,08,05,01,34,13.70
2006,08,05,01,35,13.70
2006,08,05,01,36,13.70
2006,08,05,01,37,13.70
2006,08,05,01,38,13.70
2006,08,05,01,39,13.70
2006,08,05,01,40,13.70
2006,08,05,01,41,13.70
2006,08,05,01,42,13.70
2006,08,05,01,43,13.70
2006,08,05,01,44,13.70
2006,08,05,01,45,13.70
2006,08,05,01,46,13.70
2006,08,05,01,47,13.70
2006,08,05,01,48,13.70
2006,08,05,01,49,13.70
2006,08,05,01,50,13.70
2006,08,05,01,51,13.70
2006,08,05,01,52,13.60
2006,08,05,01,53,13.60
2006,08,05,01,54,13.60
2006,08,05,01,55,13.60
2006,08,05,01,56,13.50
2006,08,05,01,57,13.50
2006,08,05,01,58,13.40
2006,08,05,01,59,13.40
2006,08,05,02,00,13.40
2006,08,05,02,01,13.30
2006,08,05,02,02,13.30
2006,08,05,02,03,13.30
2006,08,05,02,04,13.20
2006,08,05,02,05,13.10
2006,08,05,02,06,13.10
2006,08,05,02,07,13.00
2006,08,05,02,08,13.00
2006,08,05,02,09,13.00
2006,08,05,02,10,12.90
2006,08,05,02,11,12.90
2006,08,05,02,12,12.90
2006,08,05,02,13,12.80
2006,08,05,02,14,12.80
2006,08,05,02,15,12.80
2006,08,05,02,16,12.80
2006,08,05,02,17,12.80
2006,08,05,02,18,12.80
2006,08,05,02,19,12.80
2006,08,05,02,20,12.70
2006,08,05,02,21,12.70
2006,08,05,02,22,12.60
2006,08,05,02,23,12.60
2006,08,05,02,24,12.60
2006,08,05,02,25,12.50
2006,08,05,02,26,12.50
2006,08,05,02,27,12.50
2006,08,05,02,28,12.50
2006,08,05,02,29,12.40
2006,08,05,02,30,12.40
2006,08,05,02,31,12.40
2006,08,05,02,32,12.40
2006,08,05,02,33,12.30
2006,08,05,02,34,12.30
2006,08,05,02,35,12.30
2006,08,05,02,36,12.30
2006,08,05,02,37,12.30
2006,08,05,02,38,12.30
2006,08,05,02,39,12.30
2006,08,05,02,40,12.30
2006,08,05,02,41,12.30
2006,08,05,02,42,12.30
2006,08,05,02,43,12.30
2006,08,05,02,44,12.30
2006,08,05,02,45,12.30
2006,08,05,02,46,12.30
2006,08,05,02,47,12.30
2006,08,05,02,48,12.20
2006,08,05,02,49,12.20
2006,08,05,02,50,12.20
2006,08,05,02,51,12.20
2006,08,05,02,52,12.20
2006,08,05,02,53,12.20
2006,08,05,02,54,12.20
2006,08,05,02,55,12.20
2006,08,05,02,56,12.20
2006,08,05,02,57,12.10
2006,08,05,02,58,12.10
2006,08,05,02,59,12.10
2006,08,05,03,00,12.10
2006,08,05,03,01,12.20
2006,08,05,03,02,12.20
2006,08,05,03,03,12.20
2006,08,05,03,04,12.30
2006,08,05,03,05,12.30
2006,08,05,03,06,12.30
2006,08,05,03,07,12.30
2006,08,05,03,08,12.30
2006,08,05,03,09,12.40
2006,08,05,03,10,12.40
2006,08,05,03,11,12.50
2006,08,05,03,12,12.50
2006,08,05,03,13,12.50
2006,08,05,03,14,12.50
2006,08,05,03,15,12.50
2006,08,05,03,16,12.50
2006,08,05,03,17,12.50
2006,08,05,03,18,12.50
2006,08,05,03,19,12.50
2006,08,05,03,20,12.50
2006,08,05,03,21,12.50
2006,08,05,03,22,12.50
2006,08,05,03,23,12.50
2006,08,05,03,24,12.50
2006,08,05,03,25,12.40
2006,08,05,03,26,12.40
2006,08,05,03,27,12.40
2006,08,05,03,28,12.40
2006,08,05,03,29,12.50
2006,08,05,03,30,12.50
2006,08,05,03,31,12.50
2006,08,05,03,32,12.50
2006,08,05,03,33,12.50
2006,08,05,03,34,12.50
2006,08,05,03,35,12.50
2006,08,05,03,36,12.40
2006,08,05,03,37,12.40
2006,08,05,03,38,12.40
2006,08,05,03,39,12.40
2006,08,05,03,40,12.40
2006,08,05,03,41,12.40
2006,08,05,03,42,12.50
2006,08,05,03,43,12.40
2006,08,05,03,44,12.40
2006,08,05,03,45,12.40
2006,08,05,03,46,12.40
2006,08,05,03,47,12.40
2006,08,05,03,48,12.40
2006,08,05,03,49,12.40
2006,08,05,03,50,12.40
2006,08,05,03,51,12.40
2006,08,05,03,52,12.40
2006,08,05,03,53,12.40
2006,08,05,03,54,12.40
2006,08,05,03,55,12.40
2006,08,05,03,56,12.40
2006,08,05,03,57,12.40
2006,08,05,03,58,12.40
2006,08,05,03,59,12.40
2006,08,05,04,00,12.40
2006,08,05,04,01,12.40
2006,08,05,04,02,12.40
2006,08,05,04,03,12.40
2006,08,05,04,04,12.40
2006,08,05,04,05,12.40
2006,08,05,04,06,12.40
2006,08,05,04,07,12.40
2006,08,05,04,08,12.40
2006,08,05,04,09,12.40
2006,08,05,04,10,12.40
2006,08,05,04,11,12.40
2006,08,05,04,12,12.40
2006,08,05,04,13,12.40
2006,08,05,04,14,12.40
2006,08,05,04,15,12.30
2006,08,05,04,16,12.40
2006,08,05,04,17,12.40
2006,08,05,04,18,12.40
2006,08,05,04,19,12.40
2006,08,05,04,20,12.40
2006,08,05,04,21,12.40
2006,08,05,04,22,12.50
2006,08,05,04,23,12.50
2006,08,05,04,24,12.50
2006,08,05,04,25,12.60
2006,08,05,04,26,12.60
2006,08,05,04,27,12.50
2006,08,05,04,28,12.50
2006,08,05,04,29,12.50
2006,08,05,04,30,12.50
2006,08,05,04,31,12.50
2006,08,05,04,32,12.50
2006,08,05,04,33,12.40
2006,08,05,04,34,12.40
2006,08,05,04,35,12.40
2006,08,05,04,36,12.40
2006,08,05,04,37,12.40
2006,08,05,04,38,12.30
2006,08,05,04,39,12.30
2006,08,05,04,40,12.30
2006,08,05,04,41,12.30
2006,08,05,04,42,12.30
2006,08,05,04,43,12.30
2006,08,05,04,44,12.30
2006,08,05,04,45,12.30
2006,08,05,04,46,12.30
2006,08,05,04,47,12.30
2006,08,05,04,48,12.30
2006,08,05,04,49,12.30
2006,08,05,04,50,12.20
2006,08,05,04,51,12.20
2006,08,05,04,52,12.20
2006,08,05,04,53,12.30
2006,08,05,04,54,12.30
2006,08,05,04,55,12.30
2006,08,05,04,56,12.30
2006,08,05,04,57,12.30
2006,08,05,04,58,12.30
2006,08,05,04,59,12.30
2006,08,05,05,00,12.30
2006,08,05,05,01,12.30
2006,08,05,05,02,12.30
2006,08,05,05,03,12.30
2006,08,05,05,04,12.30
2006,08,05,05,05,12.30
2006,08,05,05,06,12.30
2006,08,05,05,07,12.30
2006,08,05,05,08,12.30
2006,08,05,05,09,12.30
2006,08,05,05,10,12.30
2006,08,05,05,11,12.30
2006,08,05,05,12,12.30
2006,08,05,05,13,12.30
2006,08,05,05,14,12.30
2006,08,05,05,15,12.30
2006,08,05,05,16,12.30
2006,08,05,05,17,12.30
2006,08,05,05,18,12.30
2006,08,05,05,19,12.30
2006,08,05,05,20,12.30
2006,08,05,05,21,12.30
2006,08,05,05,22,12.30
2006,08,05,05,23,12.40
2006,08,05,05,24,12.40
2006,08,05,05,25,12.40
2006,08,05,05,26,12.40
2006,08,05,05,27,12.40
2006,08,05,05,28,12.40
2006,08,05,05,29,12.40
2006,08,05,05,30,12.50
2006,08,05,05,31,12.50
2006,08,05,05,32,12.50
2006,08,05,05,33,12.50
2006,08,05,05,34,12.40
2006,08,05,05,35,12.40
2006,08,05,05,36,12.40
2006,08,05,05,37,12.40
2006,08,05,05,38,12.40
2006,08,05,05,39,12.40
2006,08,05,05,40,12.30
2006,08,05,05,41,12.30
2006,08,05,05,42,12.30
2006,08,05,05,43,12.30
2006,08,05,05,44,12.30
2006,08,05,05,45,12.30
2006,08,05,05,46,12.30
2006,08,05,05,47,12.30
2006,08,05,05,48,12.30
2006,08,05,05,49,12.30
2006,08,05,05,50,12.30
2006,08,05,05,51,12.40
2006,08,05,05,52,12.40
2006,08,05,05,53,12.50
2006,08,05,05,54,12.50
2006,08,05,05,55,12.50
2006,08,05,05,56,12.60
2006,08,05,05,57,12.60
2006,08,05,05,58,12.60
2006,08,05,05,59,12.60
2006,08,05,06,00,12.60
2006,08,05,06,01,12.50
2006,08,05,06,02,12.50
2006,08,05,06,03,12.50
2006,08,05,06,04,12.50
2006,08,05,06,05,12.40
2006,08,05,06,06,12.40
2006,08,05,06,07,12.40
2006,08,05,06,08,12.40
2006,08,05,06,09,12.40
2006,08,05,06,10,12.40
2006,08,05,06,11,12.40
2006,08,05,06,12,12.50
2006,08,05,06,13,12.50
2006,08,05,06,14,12.50
2006,08,05,06,15,12.50
2006,08,05,06,16,12.40
2006,08,05,06,17,12.40
2006,08,05,06,18,12.40
2006,08,05,06,19,12.40
2006,08,05,06,20,12.40
2006,08,05,06,21,12.30
2006,08,05,06,22,12.40
2006,08,05,06,23,12.40
2006,08,05,06,24,12.40
2006,08,05,06,25,12.40
2006,08,05,06,26,12.50
2006,08,05,06,27,12.50
2006,08,05,06,28,12.50
2006,08,05,06,29,12.60
2006,08,05,06,30,12.60
2006,08,05,06,31,12.60
2006,08,05,06,32,12.70
2006,08,05,06,33,12.70
2006,08,05,06,34,12.80
2006,08,05,06,35,12.80
2006,08,05,06,36,12.80
2006,08,05,06,37,12.80
2006,08,05,06,38,12.80
2006,08,05,06,39,12.90
2006,08,05,06,40,12.90
2006,08,05,06,41,13.00
2006,08,05,06,42,13.00
2006,08,05,06,43,13.00
2006,08,05,06,44,13.10
2006,08,05,06,45,13.10
2006,08,05,06,46,13.20
2006,08,05,06,47,13.20
2006,08,05,06,48,13.30
2006,08,05,06,49,13.30
2006,08,05,06,50,13.30
2006,08,05,06,51,13.40
2006,08,05,06,52,13.40
2006,08,05,06,53,13.50
2006,08,05,06,54,13.50
2006,08,05,06,55,13.60
2006,08,05,06,56,13.60
2006,08,05,06,57,13.70
2006,08,05,06,58,13.70
2006,08,05,06,59,13.70
2006,08,05,07,00,13.80
2006,08,05,07,01,13.80
2006,08,05,07,02,13.90
2006,08,05,07,03,14.00
2006,08,05,07,04,14.10
2006,08,05,07,05,14.20
2006,08,05,07,06,14.40
2006,08,05,07,07,14.50
2006,08,05,07,08,14.50
2006,08,05,07,09,14.60
2006,08,05,07,10,14.60
2006,08,05,07,11,14.70
2006,08,05,07,12,14.70
2006,08,05,07,13,14.70
2006,08,05,07,14,14.80
2006,08,05,07,15,14.80
2006,08,05,07,16,14.80
2006,08,05,07,17,14.80
2006,08,05,07,18,14.70
2006,08,05,07,19,14.70
2006,08,05,07,20,14.70
2006,08,05,07,21,14.70
2006,08,05,07,22,14.70
2006,08,05,07,23,14.80
2006,08,05,07,24,14.80
2006,08,05,07,25,14.80
2006,08,05,07,26,14.80
2006,08,05,07,27,14.80
2006,08,05,07,28,14.90
2006,08,05,07,29,15.00
2006,08,05,07,30,15.00
2006,08,05,07,31,15.10
2006,08,05,07,32,15.20
2006,08,05,07,33,15.20
2006,08,05,07,34,15.20
2006,08,05,07,35,15.20
2006,08,05,07,36,15.20
2006,08,05,07,37,15.20
2006,08,05,07,38,15.30
2006,08,05,07,39,15.30
2006,08,05,07,40,15.30
2006,08,05,07,41,15.30
2006,08,05,07,42,15.30
2006,08,05,07,43,15.30
2006,08,05,07,44,15.30
2006,08,05,07,45,15.30
2006,08,05,07,46,15.30
2006,08,05,07,47,15.30
2006,08,05,07,48,15.30
2006,08,05,07,49,15.30
2006,08,05,07,50,15.30
2006,08,05,07,51,15.30
2006,08,05,07,52,15.30
2006,08,05,07,53,15.30
2006,08,05,07,54,15.30
2006,08,05,07,55,15.30
2006,08,05,07,56,15.30
2006,08,05,07,57,15.30
2006,08,05,07,58,15.30
2006,08,05,07,59,15.30
2006,08,05,08,00,15.30
2006,08,05,08,01,15.30
2006,08,05,08,02,15.40
2006,08,05,08,03,15.40
2006,08,05,08,04,15.50
2006,08,05,08,05,15.60
2006,08,05,08,06,15.70
2006,08,05,08,07,15.70
2006,08,05,08,08,15.80
2006,08,05,08,09,15.80
2006,08,05,08,10,15.90
2006,08,05,08,11,16.00
2006,08,05,08,12,16.10
2006,08,05,08,13,16.10
2006,08,05,08,14,16.20
2006,08,05,08,15,16.30
2006,08,05,08,16,16.40
2006,08,05,08,17,16.50
2006,08,05,08,18,16.60
2006,08,05,08,19,16.70
2006,08,05,08,20,16.70
2006,08,05,08,21,16.80
2006,08,05,08,22,16.90
2006,08,05,08,23,16.90
2006,08,05,08,24,17.00
2006,08,05,08,25,17.10
2006,08,05,08,26,17.10
2006,08,05,08,27,17.20
2006,08,05,08,28,17.20
2006,08,05,08,29,17.20
2006,08,05,08,30,17.20
2006,08,05,08,31,17.20
2006,08,05,08,32,17.20
2006,08,05,08,33,17.20
2006,08,05,08,34,17.20
2006,08,05,08,35,17.20
2006,08,05,08,36,17.20
2006,08,05,08,37,17.20
2006,08,05,08,38,17.20
2006,08,05,08,39,17.20
2006,08,05,08,40,17.30
2006,08,05,08,41,17.30
2006,08,05,08,42,17.40
2006,08,05,08,43,17.40
2006,08,05,08,44,17.40
2006,08,05,08,45,17.50
2006,08,05,08,46,17.50
2006,08,05,08,47,17.50
2006,08,05,08,48,17.60
2006,08,05,08,49,17.60
2006,08,05,08,50,17.80
2006,08,05,08,51,17.80
2006,08,05,08,52,17.90
2006,08,05,08,53,17.90
2006,08,05,08,54,18.00
2006,08,05,08,55,17.90
2006,08,05,08,56,17.90
2006,08,05,08,57,17.90
2006,08,05,08,58,17.90
2006,08,05,08,59,17.90
2006,08,05,09,00,17.80
2006,08,05,09,01,17.80
2006,08,05,09,02,17.90
2006,08,05,09,03,17.90
2006,08,05,09,04,17.90
2006,08,05,09,05,17.90
2006,08,05,09,06,18.10
2006,08,05,09,07,18.20
2006,08,05,09,08,18.30
2006,08,05,09,09,18.40
2006,08,05,09,10,18.40
2006,08,05,09,11,18.40
2006,08,05,09,12,18.40
2006,08,05,09,13,18.40
2006,08,05,09,14,18.40
2006,08,05,09,15,18.30
2006,08,05,09,16,18.30
2006,08,05,09,17,18.20
2006,08,05,09,18,18.20
2006,08,05,09,19,18.30
2006,08,05,09,20,18.30
2006,08,05,09,21,18.40
2006,08,05,09,22,18.40
2006,08,05,09,23,18.40
2006,08,05,09,24,18.50
2006,08,05,09,25,18.50
2006,08,05,09,26,18.60
2006,08,05,09,27,18.60
2006,08,05,09,28,18.60
2006,08,05,09,29,18.60
2006,08,05,09,30,18.70
2006,08,05,09,31,18.60
2006,08,05,09,32,18.50
2006,08,05,09,33,18.50
2006,08,05,09,34,18.50
2006,08,05,09,35,18.60
2006,08,05,09,36,18.60
2006,08,05,09,37,18.60
2006,08,05,09,38,18.60
2006,08,05,09,39,18.60
2006,08,05,09,40,18.60
2006,08,05,09,41,18.70
2006,08,05,09,42,18.70
2006,08,05,09,43,18.60
2006,08,05,09,44,18.60
2006,08,05,09,45,18.60
2006,08,05,09,46,18.60
2006,08,05,09,47,18.60
2006,08,05,09,48,18.70
2006,08,05,09,49,18.70
2006,08,05,09,50,18.80
2006,08,05,09,51,18.80
2006,08,05,09,52,18.90
2006,08,05,09,53,18.90
2006,08,05,09,54,19.00
2006,08,05,09,55,19.10
2006,08,05,09,56,19.10
2006,08,05,09,57,19.10
2006,08,05,09,58,19.10
2006,08,05,09,59,19.10
2006,08,05,10,00,19.20
2006,08,05,10,01,19.20
2006,08,05,10,02,19.20
2006,08,05,10,03,19.10
2006,08,05,10,04,19.10
2006,08,05,10,05,19.10
2006,08,05,10,06,18.90
2006,08,05,10,07,18.90
2006,08,05,10,08,18.90
2006,08,05,10,09,18.90
2006,08,05,10,10,18.90
2006,08,05,10,11,18.90
2006,08,05,10,12,18.90
2006,08,05,10,13,18.90
2006,08,05,10,14,18.90
2006,08,05,10,15,18.90
2006,08,05,10,16,18.90
2006,08,05,10,17,18.90
2006,08,05,10,18,18.90
2006,08,05,10,19,18.90
2006,08,05,10,20,18.90
2006,08,05,10,21,18.90
2006,08,05,10,22,18.90
2006,08,05,10,23,18.90
2006,08,05,10,24,18.90
2006,08,05,10,25,18.80
2006,08,05,10,26,18.80
2006,08,05,10,27,18.70
2006,08,05,10,28,18.70
2006,08,05,10,29,18.70
2006,08,05,10,30,18.60
2006,08,05,10,31,18.60
2006,08,05,10,32,18.60
2006,08,05,10,33,18.60
2006,08,05,10,34,18.70
2006,08,05,10,35,18.70
2006,08,05,10,36,18.70
2006,08,05,10,37,18.70
2006,08,05,10,38,18.80
2006,08,05,10,39,18.90
2006,08,05,10,40,18.90
2006,08,05,10,41,18.90
2006,08,05,10,42,19.10
2006,08,05,10,43,19.10
2006,08,05,10,44,19.20
2006,08,05,10,45,19.20
2006,08,05,10,46,19.30
2006,08,05,10,47,19.30
2006,08,05,10,48,19.20
2006,08,05,10,49,19.10
2006,08,05,10,50,19.10
2006,08,05,10,51,19.10
2006,08,05,10,52,19.10
2006,08,05,10,53,19.20
2006,08,05,10,54,19.20
2006,08,05,10,55,19.30
2006,08,05,10,56,19.20
2006,08,05,10,57,19.10
2006,08,05,10,58,19.10
2006,08,05,10,59,19.20
2006,08,05,11,00,19.20
2006,08,05,11,01,19.20
2006,08,05,11,02,19.20
2006,08,05,11,03,19.10
2006,08,05,11,04,19.10
2006,08,05,11,05,19.10
2006,08,05,11,06,19.10
2006,08,05,11,07,19.10
2006,08,05,11,08,19.10
2006,08,05,11,09,19.10
2006,08,05,11,10,19.10
2006,08,05,11,11,18.90
2006,08,05,11,12,18.90
2006,08,05,11,13,18.90
2006,08,05,11,14,18.90
2006,08,05,11,15,18.90
2006,08,05,11,16,18.90
2006,08,05,11,17,18.90
2006,08,05,11,18,18.90
2006,08,05,11,19,18.90
2006,08,05,11,20,19.00
2006,08,05,11,21,19.10
2006,08,05,11,22,19.10
2006,08,05,11,23,19.10
2006,08,05,11,24,19.10
2006,08,05,11,25,19.10
2006,08,05,11,26,19.10
2006,08,05,11,27,19.10
2006,08,05,11,28,19.20
2006,08,05,11,29,19.30
2006,08,05,11,30,19.50
2006,08,05,11,31,19.60
2006,08,05,11,32,19.70
2006,08,05,11,33,19.80
2006,08,05,11,34,19.90
2006,08,05,11,35,19.90
2006,08,05,11,36,19.90
2006,08,05,11,37,20.00
2006,08,05,11,38,20.10
2006,08,05,11,39,20.00
2006,08,05,11,40,19.90
2006,08,05,11,41,19.90
2006,08,05,11,42,19.90
2006,08,05,11,43,19.70
2006,08,05,11,44,19.70
2006,08,05,11,45,19.60
2006,08,05,11,46,19.70
2006,08,05,11,47,19.80
2006,08,05,11,48,19.80
2006,08,05,11,49,19.80
2006,08,05,11,50,19.80
2006,08,05,11,51,19.90
2006,08,05,11,52,19.90
2006,08,05,11,53,19.90
2006,08,05,11,54,19.90
2006,08,05,11,55,19.90
2006,08,05,11,56,19.80
2006,08,05,11,57,19.70
2006,08,05,11,58,19.70
2006,08,05,11,59,19.70
2006,08,05,12,00,19.70
2006,08,05,12,01,19.70
2006,08,05,12,02,19.70
2006,08,05,12,03,19.80
2006,08,05,12,04,19.80
2006,08,05,12,05,19.90
2006,08,05,12,06,20.10
2006,08,05,12,07,20.20
2006,08,05,12,08,20.20
2006,08,05,12,09,20.20
2006,08,05,12,10,20.20
2006,08,05,12,11,20.20
2006,08,05,12,12,20.20
2006,08,05,12,13,20.20
2006,08,05,12,14,20.20
2006,08,05,12,15,20.20
2006,08,05,12,16,20.20
2006,08,05,12,17,20.20
2006,08,05,12,18,20.20
2006,08,05,12,19,20.20
2006,08,05,12,20,20.30
2006,08,05,12,21,20.20
2006,08,05,12,22,20.20
2006,08,05,12,23,20.20
2006,08,05,12,24,20.20
2006,08,05,12,25,20.20
2006,08,05,12,26,20.10
2006,08,05,12,27,20.10
2006,08,05,12,28,20.20
2006,08,05,12,29,20.20
2006,08,05,12,30,20.20
2006,08,05,12,31,20.30
2006,08,05,12,32,20.30
2006,08,05,12,33,20.30
2006,08,05,12,34,20.30
2006,08,05,12,35,20.30
2006,08,05,12,36,20.30
2006,08,05,12,37,20.20
2006,08,05,12,38,20.30
2006,08,05,12,39,20.30
2006,08,05,12,40,20.30
2006,08,05,12,41,20.30
2006,08,05,12,42,20.30
2006,08,05,12,43,20.40
2006,08,05,12,44,20.40
2006,08,05,12,45,20.40
2006,08,05,12,46,20.50
2006,08,05,12,47,20.50
2006,08,05,12,48,20.50
2006,08,05,12,49,20.50
2006,08,05,12,50,20.50
2006,08,05,12,51,20.50
2006,08,05,12,52,20.50
2006,08,05,12,53,20.50
2006,08,05,12,54,20.50
2006,08,05,12,55,20.60
2006,08,05,12,56,20.60
2006,08,05,12,57,20.60
2006,08,05,12,58,20.60
2006,08,05,12,59,20.60
2006,08,05,13,00,20.50
2006,08,05,13,01,20.50
2006,08,05,13,02,20.60
2006,08,05,13,03,20.60
2006,08,05,13,04,20.70
2006,08,05,13,05,20.80
2006,08,05,13,06,21.10
2006,08,05,13,07,21.30
2006,08,05,13,08,21.40
2006,08,05,13,09,21.50
2006,08,05,13,10,21.60
2006,08,05,13,11,21.70
2006,08,05,13,12,21.70
2006,08,05,13,13,21.70
2006,08,05,13,14,21.70
2006,08,05,13,15,21.70
2006,08,05,13,16,21.70
2006,08,05,13,17,21.70
2006,08,05,13,18,21.70
2006,08,05,13,19,21.80
2006,08,05,13,20,21.90
2006,08,05,13,21,21.90
2006,08,05,13,22,21.90
2006,08,05,13,23,21.90
2006,08,05,13,24,22.00
2006,08,05,13,25,22.00
2006,08,05,13,26,21.90
2006,08,05,13,27,21.90
2006,08,05,13,28,21.80
2006,08,05,13,29,21.80
2006,08,05,13,30,21.80
2006,08,05,13,31,21.70
2006,08,05,13,32,21.70
2006,08,05,13,33,21.70
2006,08,05,13,34,21.70
2006,08,05,13,35,21.80
2006,08,05,13,36,21.90
2006,08,05,13,37,22.00
2006,08,05,13,38,22.10
2006,08,05,13,39,22.00
2006,08,05,13,40,22.00
2006,08,05,13,41,22.00
2006,08,05,13,42,22.00
2006,08,05,13,43,22.00
2006,08,05,13,44,22.00
2006,08,05,13,45,22.10
2006,08,05,13,46,22.00
2006,08,05,13,47,22.00
2006,08,05,13,48,22.10
2006,08,05,13,49,22.10
2006,08,05,13,50,22.20
2006,08,05,13,51,22.20
2006,08,05,13,52,22.20
2006,08,05,13,53,22.20
2006,08,05,13,54,22.30
2006,08,05,13,55,22.30
2006,08,05,13,56,22.30
2006,08,05,13,57,22.30
2006,08,05,13,58,22.20
2006,08,05,13,59,22.20
2006,08,05,14,00,22.20
2006,08,05,14,01,22.30
2006,08,05,14,02,22.30
2006,08,05,14,03,22.30
2006,08,05,14,04,22.30
2006,08,05,14,05,22.30
2006,08,05,14,06,22.30
2006,08,05,14,07,22.30
2006,08,05,14,08,22.40
2006,08,05,14,09,22.40
2006,08,05,14,10,22.40
2006,08,05,14,11,22.40
2006,08,05,14,12,22.40
2006,08,05,14,13,22.30
2006,08,05,14,14,22.20
2006,08,05,14,15,22.20
2006,08,05,14,16,22.10
2006,08,05,14,17,22.10
2006,08,05,14,18,22.10
2006,08,05,14,19,22.20
2006,08,05,14,20,22.30
2006,08,05,14,21,22.50
2006,08,05,14,22,22.60
2006,08,05,14,23,22.50
2006,08,05,14,24,22.40
2006,08,05,14,25,22.20
2006,08,05,14,26,22.10
2006,08,05,14,27,22.00
2006,08,05,14,28,21.90
2006,08,05,14,29,21.90
2006,08,05,14,30,21.90
2006,08,05,14,31,21.90
2006,08,05,14,32,21.90
2006,08,05,14,33,21.90
2006,08,05,14,34,21.80
2006,08,05,14,35,21.60
2006,08,05,14,36,21.70
2006,08,05,14,37,21.80
2006,08,05,14,38,21.90
2006,08,05,14,39,21.80
2006,08,05,14,40,21.90
2006,08,05,14,41,22.00
2006,08,05,14,42,22.10
2006,08,05,14,43,22.00
2006,08,05,14,44,21.90
2006,08,05,14,45,21.70
2006,08,05,14,46,21.60
2006,08,05,14,47,21.60
2006,08,05,14,48,21.70
2006,08,05,14,49,21.80
2006,08,05,14,50,21.80
2006,08,05,14,51,21.90
2006,08,05,14,52,22.00
2006,08,05,14,53,22.00
2006,08,05,14,54,22.10
2006,08,05,14,55,22.20
2006,08,05,14,56,22.20
2006,08,05,14,57,22.30
2006,08,05,14,58,22.30
2006,08,05,14,59,22.30
2006,08,05,15,00,22.50
2006,08,05,15,01,22.50
2006,08,05,15,02,22.60
2006,08,05,15,03,22.60
2006,08,05,15,04,22.60
2006,08,05,15,05,22.40
2006,08,05,15,06,22.30
2006,08,05,15,07,22.20
2006,08,05,15,08,22.10
2006,08,05,15,09,22.10
2006,08,05,15,10,22.10
2006,08,05,15,11,22.20
2006,08,05,15,12,22.30
2006,08,05,15,13,22.50
2006,08,05,15,14,22.60
2006,08,05,15,15,22.70
2006,08,05,15,16,22.80
2006,08,05,15,17,22.80
2006,08,05,15,18,22.70
2006,08,05,15,19,22.70
2006,08,05,15,20,22.60
2006,08,05,15,21,22.50
2006,08,05,15,22,22.50
2006,08,05,15,23,22.40
2006,08,05,15,24,22.40
2006,08,05,15,25,22.40
2006,08,05,15,26,22.40
2006,08,05,15,27,22.50
2006,08,05,15,28,22.50
2006,08,05,15,29,22.50
2006,08,05,15,30,22.60
2006,08,05,15,31,22.60
2006,08,05,15,32,22.60
2006,08,05,15,33,22.50
2006,08,05,15,34,22.50
2006,08,05,15,35,22.50
2006,08,05,15,36,22.50
2006,08,05,15,37,22.60
2006,08,05,15,38,22.60
2006,08,05,15,39,22.60
2006,08,05,15,40,22.60
2006,08,05,15,41,22.60
2006,08,05,15,42,22.70
2006,08,05,15,43,22.90
2006,08,05,15,44,23.00
2006,08,05,15,45,23.10
2006,08,05,15,46,23.10
2006,08,05,15,47,23.10
2006,08,05,15,48,22.90
2006,08,05,15,49,22.90
2006,08,05,15,50,22.90
2006,08,05,15,51,22.80
2006,08,05,15,52,22.70
2006,08,05,15,53,22.70
2006,08,05,15,54,22.60
2006,08,05,15,55,22.40
2006,08,05,15,56,22.30
2006,08,05,15,57,22.20
2006,08,05,15,58,22.20
2006,08,05,15,59,22.30
2006,08,05,16,00,22.30
2006,08,05,16,01,22.40
2006,08,05,16,02,22.40
2006,08,05,16,03,22.60
2006,08,05,16,04,22.70
2006,08,05,16,05,22.80
2006,08,05,16,06,22.90
2006,08,05,16,07,22.90
2006,08,05,16,08,22.90
2006,08,05,16,09,22.90
2006,08,05,16,10,22.90
2006,08,05,16,11,22.90
2006,08,05,16,12,23.00
2006,08,05,16,13,23.10
2006,08,05,16,14,23.10
2006,08,05,16,15,23.30
2006,08,05,16,16,23.40
2006,08,05,16,17,23.60
2006,08,05,16,18,23.70
2006,08,05,16,19,23.70
2006,08,05,16,20,23.70
2006,08,05,16,21,23.70
2006,08,05,16,22,23.70
2006,08,05,16,23,23.80
2006,08,05,16,24,23.90
2006,08,05,16,25,24.00
2006,08,05,16,26,24.10
2006,08,05,16,27,24.10
2006,08,05,16,28,24.10
2006,08,05,16,29,24.10
2006,08,05,16,30,24.20
2006,08,05,16,31,24.40
2006,08,05,16,32,24.50
2006,08,05,16,33,24.60
2006,08,05,16,34,24.70
2006,08,05,16,35,24.70
2006,08,05,16,36,24.70
2006,08,05,16,37,24.80
2006,08,05,16,38,24.90
2006,08,05,16,39,25.10
2006,08,05,16,40,25.20
2006,08,05,16,41,25.30
2006,08,05,16,42,25.50
2006,08,05,16,43,25.50
2006,08,05,16,44,25.60
2006,08,05,16,45,25.60
2006,08,05,16,46,25.60
2006,08,05,16,47,25.70
2006,08,05,16,48,25.70
2006,08,05,16,49,25.70
2006,08,05,16,50,25.80
2006,08,05,16,51,25.80
2006,08,05,16,52,25.80
2006,08,05,16,53,25.90
2006,08,05,16,54,25.90
2006,08,05,16,55,25.90
2006,08,05,16,56,26.00
2006,08,05,16,57,26.10
2006,08,05,16,58,26.00
2006,08,05,16,59,25.90
2006,08,05,17,00,25.80
2006,08,05,17,01,25.80
2006,08,05,17,02,25.70
2006,08,05,17,03,25.70
2006,08,05,17,04,25.60
2006,08,05,17,05,25.60
2006,08,05,17,06,25.50
2006,08,05,17,07,25.50
2006,08,05,17,08,25.40
2006,08,05,17,09,25.40
2006,08,05,17,10,25.50
2006,08,05,17,11,25.60
2006,08,05,17,12,25.60
2006,08,05,17,13,25.70
2006,08,05,17,14,25.70
2006,08,05,17,15,25.70
2006,08,05,17,16,25.60
2006,08,05,17,17,25.50
2006,08,05,17,18,25.40
2006,08,05,17,19,25.30